When you browse on this site, cookies collect data to enhance your experience and personalize the content and advertising you see.
Visit our Privacy Policy to learn more. By continuing to use the site, you agree to this use of cookies and data.

Hourly Weather Wilmslow

Today, 2 July, Thursday

Time Temperature Precipitation Wind Pressure Humidity
00:00 +14°C° 0 mm 2 mps 747 mmHg 95%
01:00 +14°C° 1 mm 2 mps 747 mmHg 95%
02:00 +14°C° 1 mm 2 mps 747 mmHg 95%
03:00 +14°C° 1 mm 2 mps 747 mmHg 95%
04:00 +14°C° 2 mm 2 mps 747 mmHg 95%
05:00 +14°C° 2 mm 2 mps 748 mmHg 94%
06:00 +14°C° 0 mm 2 mps 748 mmHg 95%
07:00 +14°C° 0.7 mm 2 mps 748 mmHg 93%
08:00 +14°C° 0.7 mm 2 mps 749 mmHg 92%
09:00 +14°C° 0.7 mm 2 mps 749 mmHg 90%
10:00 +15°C° 0.2 mm 2 mps 749 mmHg 87%
11:00 +15°C° 0.2 mm 2 mps 750 mmHg 84%
12:00 +16°C° 0 mm 1 mps 750 mmHg 82%
13:00 +17°C° 0.2 mm 2 mps 750 mmHg 79%
14:00 +17°C° 0.2 mm 2 mps 751 mmHg 75%
15:00 +18°C° 0.2 mm 3 mps 751 mmHg 71%
16:00 +18°C° 0.1 mm 3 mps 751 mmHg 72%
17:00 +17°C° 0.1 mm 3 mps 751 mmHg 72%
18:00 +17°C° 0.1 mm 3 mps 752 mmHg 73%
19:00 +16°C° 0 mm 3 mps 752 mmHg 76%
20:00 +13°C° 0 mm 3 mps 752 mmHg 79%
21:00 +13°C° 0 mm 2 mps 752 mmHg 82%
22:00 +13°C° 0 mm 2 mps 752 mmHg 84%
23:00 +12°C° 0 mm 2 mps 752 mmHg 86%

Tomorrow, 3 July, Friday

Time Temperature Precipitation Wind Pressure Humidity
00:00 +12°C° 0 mm 2 mps 752 mmHg 87%
01:00 +11°C° 0 mm 3 mps 752 mmHg 88%
02:00 +11°C° 0 mm 3 mps 752 mmHg 89%
03:00 +11°C° 0 mm 3 mps 752 mmHg 89%
04:00 +11°C° 0 mm 4 mps 751 mmHg 88%
05:00 +12°C° 0 mm 5 mps 751 mmHg 86%
06:00 +12°C° 0 mm 5 mps 751 mmHg 85%
07:00 +11°C° 0.1 mm 6 mps 751 mmHg 85%
08:00 +11°C° 0.1 mm 6 mps 751 mmHg 86%
09:00 +13°C° 0.1 mm 6 mps 750 mmHg 86%
10:00 +13°C° 0.1 mm 6 mps 750 mmHg 86%
11:00 +14°C° 0.1 mm 7 mps 750 mmHg 85%
12:00 +14°C° 0.1 mm 7 mps 749 mmHg 85%
13:00 +15°C° 0.2 mm 7 mps 749 mmHg 85%
14:00 +15°C° 0.2 mm 7 mps 749 mmHg 85%
15:00 +15°C° 0.2 mm 7 mps 749 mmHg 86%
16:00 +15°C° 0.4 mm 7 mps 749 mmHg 87%
17:00 +15°C° 0.4 mm 7 mps 749 mmHg 88%
18:00 +15°C° 0.4 mm 6 mps 749 mmHg 90%
19:00 +15°C° 0.2 mm 6 mps 749 mmHg 91%
20:00 +15°C° 0.2 mm 5 mps 749 mmHg 92%
21:00 +15°C° 0.2 mm 5 mps 749 mmHg 93%
22:00 +15°C° 0.1 mm 4 mps 749 mmHg 93%
23:00 +15°C° 0.1 mm 4 mps 749 mmHg 94%

Day after tomorrow, 4 July, Saturday

Time Temperature Precipitation Wind Pressure Humidity
00:00 +16°C° 0.1 mm 3 mps 749 mmHg 95%
01:00 +15°C° 0.1 mm 4 mps 749 mmHg 95%
02:00 +15°C° 0.1 mm 4 mps 748 mmHg 95%
03:00 +15°C° 0.1 mm 4 mps 748 mmHg 95%
04:00 +15°C° 0.9 mm 4 mps 748 mmHg 95%
05:00 +17°C° 0.9 mm 4 mps 747 mmHg 94%
06:00 +16°C° 0.9 mm 5 mps 747 mmHg 94%
07:00 +16°C° 0.1 mm 5 mps 747 mmHg 93%
08:00 +17°C° 0.1 mm 5 mps 746 mmHg 91%
09:00 +17°C° 0.1 mm 6 mps 746 mmHg 90%
10:00 +19°C° 0.1 mm 6 mps 746 mmHg 88%
11:00 +18°C° 0.1 mm 7 mps 746 mmHg 87%
12:00 +18°C° 0.1 mm 7 mps 746 mmHg 85%
13:00 +18°C° 0.1 mm 7 mps 746 mmHg 85%
14:00 +17°C° 0.1 mm 7 mps 747 mmHg 85%
15:00 +17°C° 0.1 mm 7 mps 747 mmHg 84%
16:00 +17°C° 0 mm 6 mps 747 mmHg 85%
17:00 +17°C° 0 mm 6 mps 747 mmHg 85%
18:00 +17°C° 0 mm 5 mps 747 mmHg 85%
19:00 +16°C° 0.1 mm 5 mps 747 mmHg 87%
20:00 +17°C° 0.1 mm 4 mps 748 mmHg 89%
21:00 +15°C° 0.1 mm 4 mps 748 mmHg 92%
22:00 +15°C° 0.1 mm 4 mps 748 mmHg 91%
23:00 +15°C° 0.1 mm 4 mps 747 mmHg 91%

5 July, Sunday

Time Temperature Precipitation Wind Pressure Humidity
00:00 +15°C° 0.1 mm 4 mps 747 mmHg 91%
01:00 +15°C° 0.1 mm 5 mps 746 mmHg 91%
02:00 +15°C° 0.1 mm 7 mps 746 mmHg 90%
03:00 +15°C° 0.1 mm 8 mps 745 mmHg 89%
04:00 +16°C° 0.1 mm 8 mps 744 mmHg 88%
05:00 +16°C° 0.1 mm 8 mps 744 mmHg 86%
06:00 +17°C° 0.1 mm 9 mps 743 mmHg 85%
07:00 +16°C° 0.3 mm 9 mps 744 mmHg 81%
08:00 +15°C° 0.3 mm 9 mps 744 mmHg 78%
09:00 +13°C° 0.3 mm 9 mps 745 mmHg 74%
10:00 +15°C° 0 mm 9 mps 745 mmHg 69%
11:00 +16°C° 0 mm 9 mps 746 mmHg 63%
12:00 +16°C° 0 mm 9 mps 746 mmHg 58%
13:00 +16°C° 0.1 mm 9 mps 746 mmHg 60%
14:00 +16°C° 0.1 mm 8 mps 747 mmHg 62%
15:00 +16°C° 0.1 mm 8 mps 747 mmHg 63%
16:00 +15°C° 0.1 mm 8 mps 747 mmHg 65%
17:00 +15°C° 0.1 mm 7 mps 747 mmHg 66%
18:00 +15°C° 0.1 mm 7 mps 747 mmHg 68%
19:00 +14°C° 0.3 mm 7 mps 747 mmHg 71%
20:00 +12°C° 0.3 mm 7 mps 748 mmHg 73%
21:00 +11°C° 0.3 mm 7 mps 748 mmHg 76%
22:00 +11°C° 0.1 mm 7 mps 748 mmHg 77%
23:00 +10°C° 0.1 mm 7 mps 748 mmHg 77%

6 July, Monday

Time Temperature Precipitation Wind Pressure Humidity
00:00 +10°C° 0.1 mm 7 mps 748 mmHg 78%
01:00 +10°C° 0.2 mm 7 mps 748 mmHg 78%
02:00 +10°C° 0.2 mm 8 mps 748 mmHg 79%
03:00 +10°C° 0.2 mm 8 mps 748 mmHg 79%
04:00 +10°C° 0.1 mm 8 mps 749 mmHg 80%
05:00 +10°C° 0.1 mm 8 mps 750 mmHg 81%
06:00 +11°C° 0.1 mm 8 mps 751 mmHg 82%
07:00 +11°C° 0.1 mm 8 mps 752 mmHg 79%
08:00 +12°C° 0.1 mm 8 mps 753 mmHg 76%
09:00 +13°C° 0.1 mm 8 mps 754 mmHg 73%
10:00 +14°C° 0.1 mm 7 mps 755 mmHg 69%
11:00 +15°C° 0.1 mm 7 mps 755 mmHg 66%
12:00 +16°C° 0.1 mm 7 mps 756 mmHg 63%
13:00 +16°C° 0 mm 7 mps 757 mmHg 61%
14:00 +16°C° 0 mm 7 mps 757 mmHg 59%
15:00 +16°C° 0 mm 7 mps 758 mmHg 58%
16:00 +15°C° 0 mm 7 mps 758 mmHg 60%
17:00 +15°C° 0 mm 6 mps 759 mmHg 63%
18:00 +14°C° 0 mm 6 mps 759 mmHg 65%
19:00 +13°C° 0 mm 5 mps 759 mmHg 67%
20:00 +12°C° 0 mm 5 mps 760 mmHg 70%
21:00 +11°C° 0 mm 4 mps 760 mmHg 72%
22:00 +10°C° 0 mm 4 mps 760 mmHg 75%
23:00 +10°C° 0 mm 4 mps 760 mmHg 78%

7 July, Tuesday

Time Temperature Precipitation Wind Pressure Humidity
00:00 +10°C° 0 mm 3 mps 761 mmHg 80%
01:00 +9°C° 0 mm 3 mps 760 mmHg 82%
02:00 +9°C° 0 mm 3 mps 760 mmHg 84%
03:00 +9°C° 0 mm 2 mps 760 mmHg 86%
04:00 +10°C° 0 mm 2 mps 760 mmHg 85%
05:00 +10°C° 0 mm 3 mps 760 mmHg 84%
06:00 +11°C° 0 mm 3 mps 761 mmHg 82%
07:00 +12°C° 0 mm 3 mps 761 mmHg 78%
08:00 +14°C° 0 mm 3 mps 761 mmHg 73%
09:00 +15°C° 0 mm 4 mps 761 mmHg 68%
10:00 +17°C° 0 mm 4 mps 760 mmHg 65%
11:00 +17°C° 0 mm 4 mps 760 mmHg 62%
12:00 +18°C° 0 mm 4 mps 760 mmHg 59%
13:00 +18°C° 0 mm 4 mps 760 mmHg 58%
14:00 +18°C° 0 mm 4 mps 760 mmHg 57%
15:00 +19°C° 0 mm 4 mps 760 mmHg 56%
16:00 +18°C° 0 mm 4 mps 760 mmHg 58%
17:00 +18°C° 0 mm 3 mps 759 mmHg 60%
18:00 +17°C° 0 mm 3 mps 759 mmHg 62%
19:00 +16°C° 0 mm 2 mps 759 mmHg 64%
20:00 +14°C° 0 mm 2 mps 759 mmHg 67%
21:00 +13°C° 0 mm 1 mps 759 mmHg 69%
22:00 +13°C° 0 mm 1 mps 759 mmHg 69%
23:00 +12°C° 0 mm 1 mps 759 mmHg 69%
Show more